Location: Powick
(52.1667°N, 2.2500°W)
Time: 23:58:05
(UTC+00:00)

Daily predictions for brighter satellites

Satellite Brightness Start Highest point End
(mag) Time Altitude Azimuth Time Altitude Azimuth Time Altitude Azimuth
USA 102 3.6 18:40:45 10° SE 18:47:20 67° ENE 18:49:35 10° NNW
USA 229 DEB 4.2 18:42:41 10° WSW 18:49:14 64° NW 18:56:14 10° NE
USA 229 4.2 18:42:46 10° WSW 18:49:19 65° NW 18:56:20 10° NE
Cosmos 1782 Rocket 3.8 18:45:41 10° SSE 18:49:55 47° E 18:54:13 10° NNE
NOSS 3-2 (C) 4.4 18:43:42 10° NW 18:50:31 49° NNE 18:58:18 10° ESE
Cosmos 1025 Rocket 4.0 18:46:44 10° N 18:50:34 29° ENE 18:54:22 10° SE
Cosmos 1975 2.9 18:46:56 10° S 18:50:57 58° E 18:54:58 10° NNE
Cosmos 2233 Rocket 4.0 18:44:57 10° S 18:51:10 74° E 18:57:21 10° NNE
CZ-4 R/B 2.1 18:47:47 10° S 18:51:58 61° WSW 18:56:09 10° NNW
Cosmos 1908 Rocket 3.5 18:47:44 10° S 18:52:05 84° ESE 18:56:30 10° NNE
USA 186 2.9 18:50:08 10° SE 18:52:48 26° ENE 18:55:34 10° N
Meteor 2-11 Rocket 4.5 18:47:42 10° S 18:53:46 64° E 18:59:52 10° NNE
NOSS 2-3 (C) 4.4 18:49:48 10° WSW 18:54:13 63° NW 18:59:40 10° NE
Cosmos 1725 Rocket 4.4 18:49:42 10° SSW 18:55:59 73° WNW 19:02:15 10° N
Cosmos 2082 Rocket 4.3 18:56:37 10° NNW 18:59:29 14° NNE 19:02:19 10° NE
NOSS 3-1 (A) 3.9 18:55:43 10° WSW 19:01:23 65° NW 19:08:09 10° NE
Cosmos 1544 3.3 18:58:05 10° SSW 19:01:45 75° W 19:05:25 10° N
Cosmos 1937 Rocket 3.7 18:56:46 10° S 19:01:50 51° ESE 19:06:52 10° NNE
MOS 1 Rocket 3.5 18:58:37 10° NNE 19:02:58 43° E 19:07:06 10° S
OBJECT-B 2.6 19:01:22 11° ESE 19:03:21 16° ENE 19:05:28 10° NNE
Cosmos 1842 3.6 19:01:45 10° NNW 19:05:36 69° W 19:09:27 10° S
Cosmos 1674 4.2 19:04:25 10° NNE 19:07:18 20° ENE 19:09:42 12° ESE
FREGAT/IRIS 3.6 19:05:31 12° ESE 19:07:20 22° ENE 19:09:26 10° NNE
Cosmos 2297 Rocket 4.2 19:04:08 10° W 19:09:02 29° NW 19:13:58 10° NNE
Cosmos 1975 Rocket 3.1 19:06:13 10° NNW 19:10:35 87° W 19:14:54 10° S
COSMO-SKYMED 1 4.1 19:09:05 10° N 19:13:12 42° WNW 19:17:17 10° SW
NOSS 8 (H) 4.5 19:10:23 10° SSW 19:13:22 43° SE 19:16:18 10° NE
NOSS 8 (E) 4.0 19:10:17 10° SW 19:13:25 74° SE 19:16:28 10° NE
In-Cosmos 22 4.2 19:09:16 10° N 19:14:27 52° ENE 19:19:39 10° SSE
NOSS 2-2 (E) 3.8 19:14:06 10° S 19:17:17 32° ESE 19:20:53 10° ENE
Cosmos 1707 2.6 19:16:16 10° N 19:20:08 67° ENE 19:23:57 10° SSE
Resurs 01 Rocket 3.0 19:19:16 14° ESE 19:21:51 23° ENE 19:25:19 10° N
H-2A R/B 2.3 19:17:08 10° S 19:22:05 72° WSW 19:27:11 10° NNW
Lacrosse 4 Rocket 3.8 19:21:27 10° N 19:22:45 11° NNE 19:24:01 10° NE
ARGOS 3.2 19:17:54 10° SSE 19:23:17 88° WSW 19:28:43 10° NNW
CZ-2C R/B 3.2 19:18:15 10° NNE 19:23:23 38° E 19:28:33 10° SSE
SJ-6B 2.9 19:21:55 10° SE 19:25:31 49° ENE 19:29:11 10° N
NOSS 2-2 (D) 3.9 19:22:36 10° S 19:25:45 31° ESE 19:29:14 10° ENE
Sich 1 Rocket 3.6 19:23:38 10° S 19:28:06 69° E 19:32:38 10° NNE
Iridium 4 Rocket 4.3 19:24:07 10° SSW 19:29:01 57° W 19:34:24 10° N
Cosmos 1048 Rocket 4.2 19:24:24 10° NNW 19:29:39 57° ENE 19:34:10 14° SE
MOS 1 4.3 19:24:32 10° SSE 19:30:10 65° ENE 19:35:51 10° NNW
CENTAUR R/B 3.3 19:23:51 10° NW 19:31:31 64° NE 19:38:33 17° ESE
ATLAS CENTAUR R/B 3.5 19:28:35 10° W 19:31:38 22° NNW 19:34:37 10° NNE
ATLAS 3B R/B 3.6 19:31:12 10° NW 19:37:28 39° NNE 19:42:49 15° E
ARIANE 5 R/B 4.1 19:37:43 17° E 19:39:10 20° ENE 19:42:22 10° NNE
Cosmos 2263 Rocket 2.3 19:33:59 10° SSW 19:39:33 81° WNW 19:45:12 10° NNE
USA 238 DEB 3.9 19:32:25 10° NW 19:39:36 82° NE 19:45:38 17° SE
SL-08 RB Rocket 3.7 19:35:02 10° SSE 19:39:39 85° W 19:44:14 10° NNW
USA 238 3.9 19:32:32 10° NW 19:39:43 82° NE 19:45:43 17° SE
ISS -2.3 19:38:45 10° SSW 19:41:13 20° SSE 19:41:13 20° SSE
Abrixas rocket 2.6 19:39:11 10° WSW 19:41:50 35° S 19:42:32 30° SE
SJ 16-02 3.3 19:39:27 10° WSW 19:43:25 33° NW 19:47:25 10° N
Cosmos 1513 Rocket 4.4 19:37:34 10° S 19:43:50 75° E 19:50:01 10° NNE
Cosmos 1844 Rocket 3.3 19:42:06 10° SSE 19:46:59 32° ESE 19:51:54 10° NE
Okean 2 Rocket 3.0 19:43:45 10° S 19:48:14 72° E 19:52:42 10° NNE
Lacrosse 5 rocket 2.2 19:47:06 10° W 19:51:20 53° NNW 19:55:13 13° ENE
Cosmos 1464 Rocket 3.9 19:45:50 10° S 19:51:57 81° E 19:58:10 10° NNE
Okean 1 Rocket 3.9 19:51:22 25° ESE 19:52:42 30° E 19:56:39 10° NNE
Cosmos 1092 Rocket 4.1 19:49:46 10° N 19:55:49 55° ENE 20:00:15 19° SSE
Ariane Rocket 3.2 19:51:18 10° S 19:56:21 74° WSW 20:01:28 10° NNW
Meteor 1-12 Rocket 4.3 19:53:37 10° S 19:59:32 86° ESE 20:05:24 10° NNE
Meteor 1-15 Rocket 4.4 19:54:22 10° SSE 19:59:45 49° E 20:05:15 10° NNE
Resurs 1-3 3.6 19:57:58 23° SSE 20:00:35 65° ENE 20:04:58 10° N
Cosmos 1300 Rocket 3.5 19:56:49 10° S 20:01:13 89° W 20:05:41 10° N
Cosmos 494 Rocket 4.0 19:57:26 10° NNW 20:02:42 68° ENE 20:05:36 27° SE
Cosmos 2026 Rocket 4.3 19:57:07 10° N 20:03:18 50° ENE 20:06:56 24° SE
Meteor 2-13 Rocket 4.4 19:58:25 10° N 20:04:35 66° ENE 20:09:01 19° SSE
CZ-2C R/B 4.2 20:00:38 10° NNE 20:04:44 35° E 20:05:30 32° ESE
Cosmos 1833 Rocket 3.8 20:00:23 10° NNW 20:05:23 31° NE 20:07:47 23° E
Cosmos 2298 Rocket 4.0 20:00:25 10° S 20:05:39 59° ESE 20:10:54 10° NNE
SPOT 3 Rocket 3.5 20:03:38 22° SSE 20:06:59 70° ENE 20:12:08 10° NNW
NOSS 3-2 (A) 4.1 20:00:31 10° NW 20:07:51 75° SW 20:13:56 20° SSE
MetOp-A 4.3 20:03:59 10° S 20:09:20 75° WSW 20:14:44 10° NNW
NOSS 2-2 (C) 3.0 20:06:37 10° SW 20:10:08 75° SE 20:14:15 10° NE
Cosmos 1536 Rocket 3.9 20:10:14 10° NNW 20:14:38 65° W 20:18:27 14° S
Cosmos 1626 2.5 20:14:22 10° N 20:17:51 42° ENE 20:17:51 42° ENE
Terra 3.6 20:19:13 17° ENE 20:19:35 17° NE 20:22:37 10° NNE
Cosmos 1892 Rocket 4.2 20:15:56 10° N 20:19:57 35° ENE 20:20:06 35° ENE
CREW DRAGON DEMO-1 DEB 2.8 20:17:00 10° W 20:19:51 69° SW 20:19:51 69° SW
USA 186 4.1 20:20:54 10° SSW 20:23:29 24° W 20:26:11 10° NW
DMSP B5D2-2 4.1 20:20:31 10° NNE 20:25:51 86° WNW 20:31:09 10° SSW
USA 234 3.4 20:20:12 10° ENE 20:26:30 47° SE 20:32:46 10° SSW
Meteor 2-5 Rocket 3.6 20:22:07 10° NNW 20:27:45 79° ENE 20:30:35 31° SSE
Cosmos 1025 Rocket 4.5 20:24:13 10° NNW 20:28:15 37° W 20:32:17 10° SSW
Cosmos 2151 Rocket 4.0 20:25:03 10° SSW 20:29:29 65° WNW 20:33:59 10° N
NOSS 5 (C) 4.3 20:26:37 10° NW 20:29:33 73° NNE 20:29:33 73° NNE
Cosmos 372 Rocket 4.4 20:27:40 10° SW 20:32:53 66° WNW 20:38:06 10° NNE
OBJECT-B 1.9 20:34:34 33° SW 20:35:25 42° W 20:38:33 10° NNW
Cosmos 2150 Rocket 4.0 20:30:22 10° SSW 20:35:46 90° W 20:41:17 10° NNE
Cosmos 1805 3.1 20:35:56 72° SSE 20:36:13 78° E 20:40:09 10° NNE
SPOT 5 3.9 20:40:10 32° ENE 20:40:35 33° ENE 20:45:17 10° N
NOSS 3-2 (C) 4.1 20:34:39 10° NW 20:42:00 73° SW 20:46:12 32° SSE
Cosmos 1674 3.7 20:39:22 10° NNW 20:43:04 44° W 20:44:32 29° SSW
Meteor 1-22 Rocket 4.3 20:43:03 42° SSE 20:44:49 58° E 20:50:45 10° NNE
Cosmos 2082 Rocket 3.1 20:40:14 10° NNW 20:45:22 34° NE 20:46:33 31° ENE
Cosmos 1125 Rocket 3.4 20:41:12 10° SSW 20:46:30 78° ESE 20:51:51 10° NNE
Okean 1-7 Rocket 4.0 20:42:28 10° N 20:46:41 47° ENE 20:46:41 47° ENE
Cosmos 1733 3.7 20:52:17 52° NNE 20:52:17 52° NNE 20:55:16 10° NNE
SL-14 R/B 3.3 20:47:58 10° N 20:51:36 76° N 20:51:36 76° N
COSMOS 2406 3.2 20:47:33 10° NNW 20:53:14 69° NE 20:54:20 55° ESE
Meteor 1-24 Rocket 3.6 20:49:08 10° NNW 20:54:36 84° W 20:56:22 46° S
CRYOSAT 2 4.2 20:51:47 10° N 20:56:43 74° E 20:57:03 70° SE
ERS-1 Rocket 3.4 20:57:24 45° ENE 20:57:24 45° ENE 21:02:11 10° N
Resurs 01 Rocket 2.1 20:56:51 42° SSW 20:58:01 56° W 21:02:25 10° NNW
Cosmos 2098 Rocket 4.2 20:55:24 10° N 21:02:37 57° ENE 21:03:50 50° ESE
Lacrosse 4 Rocket 2.7 20:59:01 10° NNW 21:02:11 30° NNE 21:02:11 30° NNE
CZ-2C R/B 3.9 20:58:34 10° N 21:03:44 43° WNW 21:08:58 10° SW
Landsat 7 3.6 21:04:41 80° SSE 21:04:57 90° E 21:09:46 10° NNW
Cosmos 2266 Rocket 4.2 20:59:25 10° N 21:05:16 47° ENE 21:05:35 46° E
Exosat Rocket 3.5 21:01:37 10° SSW 21:07:03 83° WNW 21:12:06 10° NNE
Cosmos 1766 3.8 21:09:00 57° WNW 21:09:00 57° WNW 21:12:43 10° N
Cosmos 1655 Rocket 3.9 21:05:29 10° N 21:11:44 65° ENE 21:12:30 60° ESE
ATLAS CENTAUR R/B 4.0 21:10:09 10° NNW 21:11:47 12° N 21:13:25 10° NNE
ATLAS 2AS CENTAUR R/B 3.1 21:11:59 49° SE 21:12:22 50° ESE 21:19:51 10° NE
IGS 5A 3.8 21:13:35 65° NW 21:13:35 65° NW 21:17:18 10° NNW
SPOT 1/Viking Rocket 3.4 21:14:24 80° SSE 21:14:43 88° ENE 21:19:56 10° NNW
ARIANE 5 R/B 2.9 21:15:16 61° W 21:15:16 61° W 21:19:35 10° NNW
Cosmos 1844 3.8 21:13:06 10° SW 21:18:49 76° WNW 21:24:29 10° NNE
Cosmos 2278 Rocket 4.0 21:22:34 17° NE 21:22:34 17° NE 21:24:01 10° NE
Cosmos 1455 Rocket 4.4 21:23:00 32° NNE 21:23:00 32° NNE 21:25:27 10° NNE
Cosmos 1269 Rocket 4.4 21:15:59 10° NNW 21:21:11 55° WSW 21:21:55 50° SW
CENTAUR R/B 3.6 21:14:41 10° NW 21:22:23 53° WSW 21:25:44 36° S
Cosmos 1634 Rocket 4.2 21:19:01 27° SSW 21:22:33 69° WNW 21:28:45 10° N
Cosmos 2263 Rocket 4.5 21:20:00 10° W 21:24:23 23° NW 21:28:49 10° NNE
Cosmos 2285 Rocket 4.2 21:21:44 10° SW 21:28:01 69° WNW 21:34:24 10° NNE
Spot 2 Rocket 3.6 21:28:19 64° WSW 21:28:32 65° WSW 21:33:34 10° NNW
ATLAS 3B R/B 2.6 21:22:04 10° NW 21:28:56 88° NE 21:30:03 66° SE
Cosmos 1340 Rocket 4.4 21:30:53 31° N 21:30:53 31° N 21:33:08 10° N
Cosmos 1844 Rocket 3.3 21:25:11 10° SW 21:30:39 54° NW 21:36:10 10° NNE
Lacrosse 5 rocket 2.4 21:26:49 10° WNW 21:30:50 46° N 21:30:50 46° N
Cosmos 909 Rocket 3.9 21:39:55 10° NW 21:46:39 83° NE 21:46:53 81° E
Cosmos 1833 Rocket 2.9 21:44:10 10° NW 21:49:28 66° W 21:49:28 66° W
Cosmos 2180 Rocket 4.4 21:50:40 77° SW 21:51:04 83° W 21:57:27 10° N
Cosmos 2251 Rocket 3.9 21:48:43 10° NNW 21:53:17 64° NNW 21:53:17 64° NNW
Terra 2.7 21:58:06 47° NNW 21:58:06 47° NNW 22:01:30 10° NNW
USA 234 3.2 22:06:56 37° ENE 22:09:51 81° NNW 22:16:25 10° WSW
SPOT 5 4.0 22:19:24 43° WNW 22:19:24 43° WNW 22:23:36 10° NNW
Cosmos 2082 Rocket 3.0 22:24:16 10° NW 22:28:23 45° WNW 22:28:23 45° WNW
NOSS 3-4 (A) 4.1 22:41:29 51° NNE 22:41:29 51° NNE 22:46:30 10° NE
NOSS 3-4 (C) 4.1 22:41:39 50° NNE 22:41:39 50° NNE 22:46:36 10° NE
Lacrosse 4 Rocket 4.1 22:37:36 10° NW 22:38:29 16° NW 22:38:29 16° NW
ATLAS CENTAUR R/B 4.4 22:49:29 10° NNW 22:49:50 11° NNW 22:49:50 11° NNW
CZ-4C R/B 4.4 23:02:00 18° NE 23:02:00 18° NE 23:03:36 10° NE
Cosmos 2278 Rocket 3.3 23:04:22 40° N 23:04:22 40° N 23:08:23 10° NNE
ATLAS 2AS CENTAUR R/B 3.3 22:59:08 30° WSW 23:03:21 64° NW 23:11:06 10° NE
Lacrosse 5 rocket 4.4 23:06:08 10° WNW 23:06:27 12° WNW 23:06:27 12° WNW
ATLAS 3B R/B 4.2 23:13:23 10° WNW 23:17:17 25° W 23:17:17 25° W
NOSS 3-1 (C) 4.4 23:21:18 10° NW 23:28:10 55° NNE 23:28:48 54° NE
USA 234 4.0 23:46:14 10° ENE 23:54:28 44° NW 23:59:03 10° W
